BMCB-27 Weather Reports


time (UTC)temp
C
wind
direction
speed
KPH
gust
KPH
rain 1hr
cm
rain 24hr
cm
rain mn
cm
humidity
%
barometer
mb
20260506213433 6 0 0.0 0.0 0.00 1.04 0.99 92 1010.8
20260506212256 6 0 0.0 0.0 0.00 1.09 0.99 91 1010.6
20260506211057 7 0 0.0 0.0 0.00 1.09 0.99 91 1010.5
20260506210148 7 0 0.0 0.0 0.00 1.09 0.99 91 1010.5
20260506203756 7 0 0.0 0.0 0.00 1.12 0.99 89 1010.2
20260506203010 7 0 0.0 0.0 0.00 1.12 0.99 89 1010.2
20260506202334 7 0 0.0 0.0 0.00 1.12 0.99 88 1010.2
20260506192118 9 0 0.0 0.0 0.00 1.19 0.99 84 1009.5
20260506185834 10 0 0.0 0.0 0.00 1.22 0.99 85 1009.2
20260506183003 10 0 0.0 0.0 0.00 1.27 0.99 84 1008.9
20260506181910 11 0 0.0 0.0 0.00 1.27 0.99 83 1008.7
20260506180535 11 0 0.0 0.0 0.00 1.30 0.99 89 1008.6
20260506175257 11 0 0.0 0.0 0.00 1.30 0.99 87 1008.4
20260506174142 11 0 0.0 0.0 0.00 1.32 0.99 87 1008.2
20260506172059 11 0 0.0 0.0 0.00 1.37 0.99 86 1008.1
20260506170318 11 0 0.0 0.0 0.00 1.37 0.99 85 1008.0
20260506165203 11 0 0.0 0.0 0.00 1.37 0.99 85 1007.9
20260506164221 11 0 0.0 0.0 0.00 1.37 0.99 82 1007.9
20260506163216 11 0 0.0 0.0 0.00 1.37 0.99 82 1007.9
20260506161950 11 0 0.0 0.0 0.00 1.37 0.99 80 1007.9
20260506161424 11 0 0.0 0.0 0.00 1.37 0.99 79 1007.9
20260506160159 11 0 0.0 0.0 0.00 1.37 0.99 80 1007.9
20260506154943 11 0 0.0 0.0 0.00 1.37 0.99 80 1007.8
20260506154100 11 0 0.0 0.0 0.00 1.37 0.99 81 1007.8
20260506153500 11 0 0.0 0.0 0.00 1.37 0.99 81 1007.8
20260506152410 11 0 0.0 0.0 0.00 1.37 0.99 80 1007.7
20260506151744 12 0 0.0 0.0 0.00 1.37 0.99 81 1007.6
20260506145908 12 0 0.0 0.0 0.00 1.37 0.99 83 1007.6
20260506144642 11 0 0.0 0.0 0.00 1.37 0.99 86 1007.7
20260506143931 11 0 0.0 0.0 0.00 1.37 0.99 86 1007.6
20260506143158 11 0 0.0 0.0 0.00 1.37 0.99 87 1007.7
20260506142116 11 0 0.0 0.0 0.00 1.37 0.99 87 1007.8
20260506141110 11 0 0.0 0.0 0.00 1.37 0.99 87 1007.8
20260506135209 11 0 0.0 0.0 0.00 1.37 0.99 88 1007.9
20260506134644 11 0 0.0 0.0 0.00 1.37 0.99 88 1007.9
20260506131538 10 0 0.0 0.0 0.00 1.37 0.99 90 1007.9
20260506130903 10 0 0.0 0.0 0.00 1.37 0.99 88 1007.8
20260506130117 10 0 0.0 0.0 0.00 1.37 0.99 86 1007.7
20260506125551 10 0 0.0 0.0 0.00 1.37 0.99 86 1007.7
20260506122154 11 0 0.0 0.0 0.00 1.37 0.99 89 1007.5
20260506120558 10 0 0.0 0.0 0.00 1.37 0.99 91 1007.4
20260506113517 10 0 0.0 0.0 0.00 1.37 0.99 94 1007.4
20260506112806 10 0 0.0 0.0 0.03 1.37 0.99 94 1007.4
20260506110932 9 0 0.0 0.0 0.03 1.37 0.99 96 1007.5
20260506105411 9 0 0.0 0.0 0.03 1.37 0.99 98 1007.6
20260506104810 9 0 0.0 0.0 0.03 1.37 0.99 97 1007.6
20260506102932 8 0 0.0 0.0 0.05 1.37 0.99 98 1007.7
20260506102431 8 0 0.0 0.0 0.05 1.37 0.99 98 1007.6
20260506101907 8 0 0.0 0.0 0.05 1.37 0.97 99 1007.6
20260506095831 8 0 0.0 0.0 0.05 1.37 0.97 99 1007.4
20260506094520 8 0 0.0 0.0 0.05 1.37 0.97 99 1007.3
20260506093108 8 0 0.0 0.0 0.05 1.37 0.97 99 1007.2
20260506092507 8 0 0.0 0.0 0.05 1.37 0.97 10 1007.1
20260506091645 8 0 0.0 0.0 0.05 1.35 0.94 10 1007.0
20260506090530 8 0 0.0 0.0 0.05 1.35 0.94 10 1007.0
20260506090057 8 0 0.0 0.0 0.05 1.32 0.91 10 1007.0
20260506084827 8 0 0.0 0.0 0.05 1.32 0.91 10 1006.8
20260506070837 7 0 0.0 0.0 0.08 1.27 0.89 10 1006.3
20260506070226 7 0 0.0 0.0 0.08 1.27 0.89 10 1006.2
20260506061944 7 0 0.0 0.0 0.13 1.27 0.84 10 1006.1
20260506061057 7 0 0.0 0.0 0.13 1.27 0.84 10 1006.1
20260506051323 7 0 0.0 0.0 0.18 1.22 0.76 10 1006.1
20260506050645 7 0 0.0 0.0 0.18 1.19 0.74 10 1006.1
20260506050120 7 0 0.0 0.0 0.15 1.17 0.71 10 1006.0
20260506045113 7 0 0.0 0.0 0.15 1.24 0.71 10 1006.0
20260506044613 7 0 0.0 0.0 0.13 1.27 0.69 10 1006.0
20260506043750 7 0 0.0 0.0 0.10 1.30 0.66 10 1006.0
20260506042414 7 0 0.0 0.0 0.10 1.40 0.64 10 1005.9
20260506041102 7 0 0.0 0.0 0.08 1.50 0.61 10 1005.8
20260506040537 7 0 0.0 0.0 0.08 1.55 0.61 10 1005.8
20260506035510 7 0 0.0 0.0 0.08 1.57 0.58 10 1005.9
20260506033655 7 0 0.0 0.0 0.08 1.63 0.56 10 1005.9
20260506033128 7 0 0.0 0.0 0.08 1.63 0.56 10 1005.9
20260506032233 7 0 0.0 0.0 0.08 1.65 0.56 10 1005.9
20260506031117 7 0 0.0 0.0 0.08 1.63 0.53 10 1005.9
20260506023731 8 0 0.0 0.0 0.08 1.57 0.51 10 1006.0
20260506021413 8 0 0.0 0.0 0.13 1.55 0.48 10 1006.1
20260506020637 8 0 0.0 0.0 0.10 1.55 0.46 10 1006.1
20260506015058 8 0 0.0 0.0 0.10 1.55 0.46 10 1006.1
20260506014406 8 0 0.0 0.0 0.13 1.55 0.46 10 1006.1
20260506013630 8 0 0.0 0.0 0.10 1.52 0.43 10 1006.1
20260506013104 8 0 0.0 0.0 0.10 1.52 0.43 10 1006.2
20260506011903 8 0 0.0 0.0 0.15 1.50 0.43 10 1006.2
20260506011127 8 0 0.0 0.0 0.15 1.50 0.43 10 1006.2
20260506010516 8 0 0.0 0.0 0.15 1.47 0.41 10 1006.1
20260506004220 8 0 0.0 0.0 0.20 1.45 0.36 10 1006.3
20260506003104 8 0 0.0 0.0 0.18 1.42 0.33 10 1006.3
20260506002234 8 0 0.0 0.0 0.18 1.42 0.33 10 1006.4
20260506001118 8 0 0.0 0.0 0.15 1.37 0.30 10 1006.4
20260505235854 8 0 0.0 0.0 0.15 1.37 0.28 10 1006.5
20260505235228 8 0 0.0 0.0 0.15 1.35 0.25 10 1006.6
20260505233537 8 0 0.0 0.0 0.20 1.32 0.23 10 1006.6
20260505230000 8 0 0.0 0.0 0.18 1.24 0.15 10 1006.8
20260505225349 8 0 0.0 0.0 0.18 1.24 0.15 10 1006.8
20260505223903 8 0 0.0 0.0 0.18 1.19 0.13 10 1006.9
20260505223209 8 0 0.0 0.0 0.15 1.17 0.08 10 1006.9
20260505221056 8 0 0.0 0.0 0.15 1.12 0.05 10 1006.9